Poplar Bluff, MO

9:19 AM CDT on July 20, 2019 (GMT -0500)
Poplar Bluff Municipal

Weather History for KPOF - May, 2019

Change the Weather History Date:

Saturday, May 11, 2019

  Actual Average Record
Temperature  
Mean Temperature 53 °F -  
Max Temperature 55 °F 77 °F 91 °F (2005)
Min Temperature 51 °F 54 °F 39 °F (1945)
Degree Days  
Heating Degree Days 12    
Growing Degree Days 3 (Base 50)    
Moisture  
Dew Point 51 °F    
Average Humidity 94    
Maximum Humidity 100    
Minimum Humidity 77    
Precipitation  
Precipitation 0.14 in - - ()
Sea Level Pressure  
Sea Level Pressure 29.92 in    
Wind  
Wind Speed 7 mph (NNE)    
Max Wind Speed 10 mph    
Max Gust Speed -    
Visibility 6 miles    
Events Rain    
Averages and records for this station are not official NWS values.
T = Trace of Precipitation, MM = Missing Value Source: NWS Daily Summary

Daily Weather History Graph

Daily Weather History Graph

Search for Another Location

Airport or City:

Astronomy

May. 11, 2019 Rise Set
Actual Time 5:57 AM CDT 7:58 PM CDT
Civil Twilight 5:28 AM CDT 8:27 PM CDT
Nautical Twilight 4:54 AM CDT 9:01 PM CDT
Astronomical Twilight 4:16 AM CDT 9:39 PM CDT
Moon 12:06 PM CDT (5/11) 1:38 AM CDT (5/11)
Length of Visible Light 14h 58m
Length of Day
14h 01m
Waxing Crescent, 46% of the Moon is Illuminated
May 11
Waxing Crescent
May 11
First Quarter
May 18
Full
May 26
Last Quarter
Jun 3
New

Hourly Weather History & Observations

Time (CDT) Temp. Dew Point Humidity Pressure Visibility Wind Dir Wind Speed Gust Speed Precip Events Conditions
12:53 AM 54.0 °F 46.9 °F 77% 30.08 in 10.0 mi NNE 5.8 mph - N/A   Overcast
1:37 AM 54.0 °F 46.9 °F 77% 30.06 in 10.0 mi NE 8.1 mph - N/A   Overcast
1:53 AM 54.0 °F 46.9 °F 77% 30.05 in 10.0 mi NE 8.1 mph - N/A   Overcast
2:53 AM 53.1 °F 48.0 °F 83% 30.02 in 10.0 mi NE 8.1 mph - N/A   Overcast
3:53 AM 54.0 °F 48.9 °F 83% 30.01 in 10.0 mi NE 5.8 mph - N/A   Overcast
4:53 AM 54.0 °F 48.9 °F 83% 30.00 in 10.0 mi NNE 5.8 mph - N/A   Overcast
5:53 AM 54.0 °F 48.9 °F 83% 29.99 in 10.0 mi NE 5.8 mph - N/A   Overcast
6:53 AM 54.0 °F 48.9 °F 83% 30.00 in 10.0 mi ENE 5.8 mph - N/A   Overcast
7:53 AM 54.0 °F 48.9 °F 83% 29.98 in 10.0 mi NE 10.4 mph - N/A   Overcast
8:53 AM 54.0 °F 48.9 °F 83% 29.99 in 10.0 mi NE 6.9 mph - N/A   Overcast
9:08 AM 54.0 °F 50.0 °F 86% 29.99 in 5.0 mi NE 8.1 mph - N/A   Overcast
9:53 AM 53.1 °F 51.1 °F 93% 29.97 in 2.0 mi ENE 6.9 mph - N/A   Overcast
10:00 AM 53.1 °F 52.0 °F 96% 29.96 in 1.5 mi East 6.9 mph - 0.00 in Rain Light Rain
10:08 AM 53.1 °F 52.0 °F 96% 29.96 in 1.2 mi NE 6.9 mph - 0.00 in Rain Light Rain
10:34 AM 52.0 °F 52.0 °F 100% 29.93 in 1.2 mi ENE 10.4 mph - 0.09 in Rain Rain
10:46 AM 52.0 °F 52.0 °F 100% 29.92 in 2.5 mi NE 9.2 mph - 0.11 in Rain Light Rain
11:02 AM 52.0 °F 52.0 °F 100% 29.93 in 3.0 mi NNE 8.1 mph - 0.01 in Rain Light Rain
11:10 AM 52.0 °F 52.0 °F 100% 29.94 in 2.5 mi NNE 8.1 mph - 0.04 in Rain Rain
11:26 AM 53.1 °F 52.0 °F 96% 29.93 in 4.0 mi NNE 6.9 mph - 0.06 in Rain Light Rain
11:38 AM 53.1 °F 52.0 °F 96% 29.93 in 8.0 mi NNE 9.2 mph - 0.07 in   Overcast
11:53 AM 53.1 °F 52.0 °F 96% 29.93 in 8.0 mi NE 5.8 mph - 0.07 in   Overcast
12:17 PM 53.6 °F 51.8 °F 94% 29.92 in 2.5 mi NE 8.1 mph - N/A   Overcast
12:26 PM 53.1 °F 53.1 °F 100% 29.91 in 2.5 mi NE 6.9 mph - 0.00 in   Overcast
12:53 PM 53.1 °F 52.0 °F 96% 29.90 in 2.0 mi NNE 8.1 mph - 0.01 in Rain Light Rain
1:11 PM 53.1 °F 52.0 °F 96% 29.90 in 4.0 mi NNE 9.2 mph - 0.00 in   Overcast
1:37 PM 53.1 °F 52.0 °F 96% 29.90 in 9.0 mi North 9.2 mph - 0.00 in   Overcast
1:45 PM 53.1 °F 52.0 °F 96% 29.91 in 2.5 mi North 9.2 mph - 0.00 in Rain Light Rain
1:53 PM 53.1 °F 53.1 °F 100% 29.91 in 1.5 mi NNW 6.9 mph - 0.01 in Rain Light Rain
2:16 PM 53.1 °F 53.1 °F 100% 29.91 in 2.5 mi NW 9.2 mph - 0.03 in Rain Light Rain
2:24 PM 53.1 °F 53.1 °F 100% 29.92 in 3.0 mi NW 5.8 mph - 0.03 in Rain Light Rain
2:53 PM 53.1 °F 53.1 °F 100% 29.89 in 5.0 mi North 8.1 mph - 0.04 in Rain Light Rain
2:56 PM 53.1 °F 52.0 °F 96% 29.89 in 5.0 mi North 8.1 mph - 0.00 in Rain Light Rain
3:24 PM 54.0 °F 53.1 °F 97% 29.87 in 7.0 mi North 10.4 mph - 0.01 in Rain Light Rain
3:53 PM 54.0 °F 53.1 °F 97% 29.86 in 10.0 mi NNE 9.2 mph - 0.01 in   Overcast
4:53 PM 55.0 °F 53.1 °F 93% 29.85 in 10.0 mi North 10.4 mph - N/A   Overcast
5:53 PM 54.0 °F 52.0 °F 93% 29.84 in 10.0 mi NNE 10.4 mph - N/A   Overcast
6:53 PM 54.0 °F 53.1 °F 97% 29.83 in 10.0 mi North 8.1 mph - N/A   Overcast
7:18 PM 54.0 °F 53.1 °F 97% 29.83 in 9.0 mi NNE 6.9 mph - N/A   Overcast
7:32 PM 54.0 °F 52.0 °F 93% 29.84 in 10.0 mi NNE 8.1 mph - N/A   Overcast
7:53 PM 53.1 °F 52.0 °F 96% 29.85 in 8.0 mi NNE 8.1 mph - N/A   Overcast
8:53 PM 53.1 °F 52.0 °F 96% 29.86 in 10.0 mi NNE 5.8 mph - N/A   Overcast
9:01 PM 53.1 °F 52.0 °F 96% 29.86 in 10.0 mi North 5.8 mph - N/A   Overcast
9:29 PM 53.1 °F 52.0 °F 96% 29.86 in 10.0 mi NNE 4.6 mph - N/A   Overcast
9:53 PM 53.1 °F 52.0 °F 96% 29.88 in 4.0 mi NNW 3.5 mph - N/A   Overcast
10:02 PM 52.0 °F 52.0 °F 100% 29.88 in 2.5 mi NNW 3.5 mph - N/A   Overcast
10:14 PM 52.0 °F 52.0 °F 100% 29.89 in 2.5 mi NNW 5.8 mph - N/A   Overcast
10:21 PM 52.0 °F 52.0 °F 100% 29.89 in 2.5 mi North 6.9 mph - N/A   Overcast
10:29 PM 52.0 °F 51.1 °F 97% 29.88 in 4.0 mi North 5.8 mph - N/A   Overcast
10:53 PM 52.0 °F 52.0 °F 100% 29.89 in 8.0 mi North 4.6 mph - N/A   Overcast
11:04 PM 52.0 °F 51.1 °F 97% 29.88 in 4.0 mi NNW 6.9 mph - N/A   Overcast
11:48 PM 51.8 °F 51.8 °F 100% 29.87 in 10.0 mi NNW 6.9 mph - N/A   Overcast
11:53 PM 51.1 °F 51.1 °F 100% 29.87 in 10.0 mi North 5.8 mph - N/A   Overcast